User: anonymous   Login
Location: İstanbul
(41.0082°N, 28.9784°E)
Time: 16:30:10
(UTC+03:00)
Language:

UKube-1 - Orbit

View from above orbital plane
View from above orbital plane
View from above satellite
View from above satellite

Ground track
Ground track

The orbit data is extracted from the following two-line orbital elements,

1 40074U 14037F   24103.59949803  .00007241  00000-0  71229-3 0  9995
2 40074  98.3415  29.5699 0002374 305.6484  54.4512 14.92436441528995
Epoch (UTC): 12 April 2024 14:23:16
Eccentricity: 0.0002374
inclination: 98.3415°
perigee height: 588 km
apogee height: 592 km
right ascension of ascending node: 29.5699°
argument of perigee: 305.6484°
revolutions per day: 14.92436441
mean anomaly at epoch: 54.4512°
orbit number at epoch: 52899

The dashed part of the orbit path shows where the satellite is in the earth's shadow,  

DLR